Waarnemingen

Advertentie
Mijn weer
Maastricht, Nederland (6380): temperatuur & dauwpunt: 14.04.2018 12:00:00 - 20.04.2018 12:00:00 (CEST)Maastricht, Nederland (6380): temperatuur 5cm: 14.04.2018 12:00:00 - 20.04.2018 12:00:00 (CEST)Maastricht, Nederland (6380): windsnelheid & windstoten: 14.04.2018 12:00:00 - 20.04.2018 12:00:00 (CEST)Maastricht, Nederland (6380): windrichting: 14.04.2018 12:00:00 - 20.04.2018 12:00:00 (CEST)Maastricht, Nederland (6380): luchtdruk: 14.04.2018 12:00:00 - 20.04.2018 12:00:00 (CEST)Maastricht, Nederland (6380): zicht: 14.04.2018 12:00:00 - 20.04.2018 12:00:00 (CEST)Maastricht, Nederland (6380): neerslag: 14.04.2018 12:00:00 - 20.04.2018 12:00:00 (CEST)
Datum & Tijd tt [°C] td [°C] tt 5cm [°C] ff [km/u] ff [kn] fx [km/u] fx [kn] dd ppp [hPa] vv [km] rr [mm]
20.04.2018 12:00:00 24,8 12,9 26,2 11 6 18 10 ZZW 1023,4 10 0,0
20.04.2018 11:00:00 22,8 13,2 23,9 9 5 18 10 ZZW 1023,4 10 0,0
20.04.2018 10:00:00 20,1 12,1 19,8 13 7 18 10 ZZW 1023,2 10 0,0
20.04.2018 09:00:00 17,9 11,2 16,8 9 5 11 6 Z 1023,4 10 0,0
20.04.2018 08:00:00 15,0 10,0 12,4 7 4 14 8 Z 1023,4 26 0,0
20.04.2018 07:00:00 12,4 8,4 8,9 11 6 18 10 ZZW 1023,3 30 0,0
20.04.2018 06:00:00 13,3 8,4 9,8 11 6 14 8 ZZW 1023,1 10 0,0
20.04.2018 05:00:00 13,2 8,4 9,3 11 6 14 8 ZZW 1023,4 35 0,0
20.04.2018 04:00:00 15,4 8,3 9,2 9 5 11 6 Z 1023,5 10 0,0
20.04.2018 03:00:00 15,4 8,6 9,2 11 6 14 8 Z 1023,8 41 0,0
20.04.2018 02:00:00 16,6 8,7 11,2 11 6 14 8 Z 1023,9 10 0,0
20.04.2018 01:00:00 16,5 8,6 10,0 11 6 14 8 ZZW 1024,1 33 0,0
20.04.2018 00:00:00 17,4 8,8 12,1 7 4 18 10 ZZW 1024,2 42 0,0
19.04.2018 23:00:00 20,7 8,0 14,7 11 6 18 10 ZO 1024,2 42 0,0
19.04.2018 22:00:00 20,5 8,4 14,0 9 5 36 19 ZO 1024,2 10 0,0
19.04.2018 21:00:00 21,9 8,4 15,9 7 4 18 10 OZO 1023,8 43 0,0
19.04.2018 20:00:00 24,1 8,8 20,5 11 6 25 14 O 1023,5 43 0,0
19.04.2018 19:00:00 26,0 8,4 23,8 16 9 29 16 O 1023,5 10 0,0
19.04.2018 18:00:00 27,1 9,3 25,7 15 8 32 18 O 1023,6 10 0,0
19.04.2018 17:00:00 27,3 9,6 26,5 18 10 36 19 O 1023,9 10 0,0
19.04.2018 16:00:00 27,5 10,1 27,3 21 11 36 19 O 1024,3 10 0,0
19.04.2018 15:00:00 27,7 10,3 28,3 21 11 29 16 O 1024,8 10 0,0
19.04.2018 14:00:00 27,8 8,2 28,4 16 9 29 16 ZO 1025,2 10 0,0
19.04.2018 13:00:00 26,9 9,3 28,2 8 4 25 14 O 1025,7 10 0,0
19.04.2018 12:00:00 25,8 8,8 27,2 9 5 25 14 ONO 1026,3 10 0,0
19.04.2018 11:00:00 24,1 8,8 24,7 13 7 29 16 ZO 1026,5 10 0,0
19.04.2018 10:00:00 20,8 11,2 21,9 7 4 7 4 ONO 1026,8 21 0,0
19.04.2018 09:00:00 18,1 10,6 16,7 4 2 11 6 - 1026,9 10 0,0
19.04.2018 08:00:00 14,9 9,2 9,5 5 3 22 12 O 1026,9 10 0,0
19.04.2018 07:00:00 10,9 6,5 5,6 7 4 11 6 O 1026,6 34 0,0
19.04.2018 06:00:00 11,8 7,1 5,0 11 6 11 6 O 1026,8 10 0,0
19.04.2018 05:00:00 11,3 6,7 5,5 11 6 11 6 ONO 1027,2 42 0,0
19.04.2018 04:00:00 14,1 7,2 5,8 7 4 11 6 O 1027,5 40 0,0
19.04.2018 03:00:00 14,5 7,1 7,0 11 6 11 6 O 1027,4 10 0,0
19.04.2018 02:00:00 16,2 6,8 7,4 8 4 11 6 OZO 1027,8 10 0,0
19.04.2018 01:00:00 16,3 7,3 8,8 13 7 14 8 OZO 1028,0 10 0,0
19.04.2018 00:00:00 16,8 8,1 10,0 9 5 14 8 O 1028,3 10 0,0
18.04.2018 23:00:00 18,0 8,8 10,9 8 4 14 8 O 1028,4 10 0,0
18.04.2018 22:00:00 18,5 8,9 11,9 11 6 22 12 O 1028,3 10 0,0
18.04.2018 21:00:00 20,4 8,4 17,0 15 8 18 10 O 1027,9 10 0,0
18.04.2018 20:00:00 22,0 7,8 19,1 13 7 25 14 O 1027,7 10 0,0
18.04.2018 19:00:00 23,9 9,6 21,9 15 8 25 14 ONO 1028,0 10 0,0
18.04.2018 18:00:00 24,5 9,3 23,3 16 9 25 14 ONO 1028,3 10 0,0
18.04.2018 17:00:00 24,6 6,1 24,0 15 8 29 16 ONO 1028,7 10 0,0
18.04.2018 16:00:00 24,2 6,1 24,3 15 8 22 12 ONO 1029,4 10 0,0
18.04.2018 15:00:00 23,9 8,2 24,6 11 6 22 12 O 1030,0 10 0,0
18.04.2018 14:00:00 23,2 8,1 24,5 11 6 22 12 ONO 1030,4 10 0,0
18.04.2018 13:00:00 22,1 8,9 24,3 11 6 22 12 O 1030,9 10 0,0
18.04.2018 12:00:00 21,1 9,2 23,3 13 7 22 12 OZO 1031,3 10 0,0
18.04.2018 11:00:00 20,1 9,6 21,8 11 6 18 10 O 1031,5 10 0,0
18.04.2018 10:00:00 18,4 8,6 19,6 9 5 32 18 O 1031,3 10 0,0
18.04.2018 09:00:00 15,6 8,9 14,4 5 3 7 4 ZZO 1031,2 10 0,0
18.04.2018 08:00:00 11,2 7,7 8,5 5 3 7 4 ZZO 1030,7 10 0,0
18.04.2018 07:00:00 8,4 6,2 4,2 9 5 7 4 ZZO 1030,1 10 0,0
18.04.2018 06:00:00 9,5 6,6 3,7 9 5 11 6 Z 1029,9 10 0,0
18.04.2018 05:00:00 8,8 6,8 3,5 5 3 7 4 ZZO 1029,5 10 0,0
18.04.2018 04:00:00 10,1 7,3 3,7 5 3 7 4 Z 1028,9 10 0,0
18.04.2018 03:00:00 11,4 7,2 4,8 8 4 11 6 Z 1028,7 10 0,0
18.04.2018 02:00:00 12,2 7,0 4,3 8 4 11 6 ZZW 1028,6 10 0,0
18.04.2018 01:00:00 12,3 7,4 5,1 8 4 7 4 Z 1028,3 10 0,0
18.04.2018 00:00:00 13,4 7,4 5,2 5 3 7 4 ZZW 1028,0 10 0,0
17.04.2018 23:00:00 13,2 7,9 6,0 2 1 4 2 Z 1027,6 10 0,0
17.04.2018 22:00:00 15,8 7,4 7,1 2 1 7 4 W 1027,1 10 0,0
17.04.2018 21:00:00 17,8 7,1 9,1 4 2 7 4 W 1026,3 10 0,0
17.04.2018 20:00:00 19,6 7,0 15,3 8 4 14 8 W 1025,7 10 0,0
17.04.2018 19:00:00 20,5 7,6 19,5 11 6 18 10 W 1025,4 10 0,0
17.04.2018 18:00:00 20,7 8,4 21,2 9 5 18 10 ZW 1025,0 10 0,0
17.04.2018 17:00:00 20,7 8,1 22,4 13 7 25 14 Z 1024,9 10 0,0
17.04.2018 16:00:00 20,7 8,5 23,3 15 8 29 16 Z 1024,8 10 0,0
17.04.2018 15:00:00 20,1 8,5 22,8 15 8 29 16 ZW 1024,8 10 0,0
17.04.2018 14:00:00 19,5 8,5 21,6 9 5 29 16 - 1025,0 10 0,0
17.04.2018 13:00:00 18,4 8,0 20,6 15 8 29 16 ZZW 1025,3 10 0,0
17.04.2018 12:00:00 17,6 7,5 19,5 13 7 25 14 ZZW 1025,4 10 0,0
17.04.2018 11:00:00 16,3 8,0 18,1 11 6 14 8 ZW 1025,5 10 0,0
17.04.2018 10:00:00 13,9 8,6 14,6 8 4 25 14 ZZW 1025,2 10 0,0
17.04.2018 09:00:00 11,4 7,8 10,4 8 4 11 6 ZZW 1024,8 10 0,0
17.04.2018 08:00:00 8,7 6,4 6,1 4 2 7 4 Z 1024,5 10 0,0
17.04.2018 07:00:00 6,0 4,3 3,9 8 4 11 6 ZO 1023,3 10 0,0
17.04.2018 06:00:00 6,9 5,2 3,2 8 4 11 6 ZZO 1022,8 10 0,0
17.04.2018 05:00:00 6,4 5,7 1,6 5 3 7 4 ZO 1023,0 10 0,0
17.04.2018 04:00:00 7,2 6,0 2,0 9 5 7 4 O 1022,7 10 0,0
17.04.2018 03:00:00 7,8 6,3 3,2 5 3 11 6 ONO 1022,4 10 0,0
17.04.2018 02:00:00 8,5 6,5 4,2 9 5 11 6 ONO 1022,1 10 0,0
17.04.2018 01:00:00 8,7 6,7 6,3 13 7 18 10 NO 1021,8 10 0,0
17.04.2018 00:00:00 10,0 7,3 6,8 13 7 18 10 NNO 1021,3 10 0,0
16.04.2018 23:00:00 11,7 6,3 4,1 2 1 11 6 - 1020,6 10 0,0
16.04.2018 22:00:00 12,4 6,6 5,3 4 2 11 6 - 1020,1 10 0,0
16.04.2018 21:00:00 12,9 7,0 7,9 5 3 11 6 NNW 1019,2 10 0,0
16.04.2018 20:00:00 15,1 5,8 12,5 8 4 14 8 W 1018,1 10 0,0
16.04.2018 19:00:00 15,9 6,2 16,2 9 5 22 12 W 1017,6 10 0,0
16.04.2018 18:00:00 16,6 6,1 18,4 13 7 25 14 W 1017,2 10 0,0
16.04.2018 17:00:00 17,7 7,3 20,2 15 8 25 14 W 1016,8 10 0,0
16.04.2018 16:00:00 17,2 7,7 19,9 15 8 25 14 WZW 1016,7 10 0,0
16.04.2018 15:00:00 17,2 8,1 19,1 13 7 22 12 WZW 1016,6 10 0,0
16.04.2018 14:00:00 15,8 7,9 19,2 15 8 22 12 ZW 1016,3 10 0,0
16.04.2018 13:00:00 15,5 8,1 17,5 13 7 25 14 WZW 1016,2 10 0,0
16.04.2018 12:00:00 15,2 9,5 17,3 13 7 25 14 WZW 1016,0 10 0,0
16.04.2018 11:00:00 14,3 9,5 16,6 11 6 18 10 W 1015,5 10 0,0
16.04.2018 10:00:00 12,9 9,5 14,2 11 6 22 12 W 1015,1 10 0,0
16.04.2018 09:00:00 11,6 9,1 11,4 13 7 18 10 W 1014,4 10 0,0
16.04.2018 08:00:00 10,5 9,6 8,8 11 6 14 8 ZW 1013,9 10 0,0
16.04.2018 07:00:00 9,5 8,7 6,9 9 5 11 6 ZZW 1012,8 10 0,0
16.04.2018 06:00:00 10,6 9,3 9,8 5 3 11 6 Z 1012,4 10 0,0
16.04.2018 05:00:00 10,6 9,5 9,7 5 3 11 6 Z 1012,1 10 0,0
16.04.2018 04:00:00 10,9 9,5 10,1 5 3 7 4 ZW 1012,1 10 0,2
16.04.2018 03:00:00 11,3 8,8 10,0 8 4 11 6 ZW 1011,9 10 0,0
16.04.2018 02:00:00 11,8 8,4 8,6 9 5 11 6 ZZO 1011,3 10 0,0
16.04.2018 01:00:00 11,6 8,1 7,2 8 4 14 8 ZZO 1011,3 10 0,0
16.04.2018 00:00:00 11,4 8,0 8,3 9 5 11 6 Z 1011,2 10 0,0
15.04.2018 23:00:00 12,8 8,8 9,3 8 4 11 6 ZZW 1011,0 10 0,0
15.04.2018 22:00:00 13,8 8,8 10,1 4 2 11 6 Z 1011,3 10 0,0
15.04.2018 21:00:00 15,2 8,7 11,8 8 4 18 10 ZZO 1011,2 10 0,0
15.04.2018 20:00:00 14,6 9,1 13,1 9 5 18 10 ZZW 1010,7 10 0,0
15.04.2018 19:00:00 16,2 9,9 15,6 9 5 22 12 WZW 1010,8 10 0,0
15.04.2018 18:00:00 16,4 9,6 15,8 13 7 25 14 WZW 1010,7 10 0,0
15.04.2018 17:00:00 16,7 9,2 16,3 15 8 29 16 WZW 1010,8 10 0,0
15.04.2018 16:00:00 17,4 8,7 17,3 18 10 29 16 ZW 1011,1 10 0,0
15.04.2018 15:00:00 17,1 9,6 17,0 15 8 29 16 ZZW 1011,5 10 0,0
15.04.2018 14:00:00 17,8 9,6 18,2 18 10 29 16 ZZW 1011,7 10 0,0
15.04.2018 13:00:00 17,2 10,4 18,7 16 9 29 16 ZZW 1012,1 10 0,0
15.04.2018 12:00:00 16,6 11,2 17,4 18 10 29 16 Z 1012,5 10 0,0
15.04.2018 11:00:00 15,3 11,4 16,8 15 8 25 14 Z 1012,9 10 0,0
15.04.2018 10:00:00 14,4 11,1 15,5 15 8 22 12 Z 1013,3 10 0,0
15.04.2018 09:00:00 13,1 10,4 13,5 13 7 14 8 ZZO 1013,7 10 0,0
15.04.2018 08:00:00 11,4 9,8 9,8 11 6 18 10 ZZO 1014,0 10 0,0
15.04.2018 07:00:00 11,0 9,8 10,1 11 6 18 10 ZZO 1014,2 10 0,2
15.04.2018 06:00:00 11,3 10,5 10,7 15 8 18 10 Z 1014,6 10 0,8
15.04.2018 05:00:00 11,2 10,6 10,7 11 6 14 8 Z 1015,2 10 0,2
15.04.2018 04:00:00 11,1 10,8 10,8 8 4 14 8 Z 1015,4 10 0,2
15.04.2018 03:00:00 11,4 11,2 11,2 11 6 14 8 Z 1016,0 9 0,4
15.04.2018 02:00:00 11,8 11,4 11,6 15 8 25 14 ZZW 1016,6 7 1,3
15.04.2018 01:00:00 12,4 11,2 11,9 11 6 14 8 ZZW 1017,1 8 0,1
15.04.2018 00:00:00 13,0 11,0 12,4 18 10 25 14 ZW 1017,2 9 0,3
14.04.2018 23:00:00 14,8 10,5 13,9 13 7 18 10 OZO 1016,8 7 0,0
14.04.2018 22:00:00 14,9 10,4 13,8 13 7 18 10 O 1016,7 8 0,0
14.04.2018 21:00:00 15,0 10,4 13,8 9 5 25 14 ONO 1016,8 8 0,0
14.04.2018 20:00:00 15,5 10,7 14,2 11 6 14 8 ONO 1016,7 8 0,0
14.04.2018 19:00:00 16,2 10,8 15,4 11 6 22 12 ONO 1017,0 8 0,0
14.04.2018 18:00:00 17,3 10,4 16,3 9 5 18 10 NO 1016,9 10 0,0
14.04.2018 17:00:00 18,0 9,9 18,8 5 3 14 8 N 1016,9 10 0,0
14.04.2018 16:00:00 18,2 10,2 19,8 5 3 18 10 N 1017,5 10 0,0
14.04.2018 15:00:00 17,3 9,2 21,0 9 5 18 10 WNW 1018,1 10 0,0
14.04.2018 14:00:00 16,8 10,3 19,6 5 3 11 6 NNW 1018,2 8 0,0
14.04.2018 13:00:00 14,8 9,7 16,8 4 2 11 6 - 1018,4 5 0,0
14.04.2018 12:00:00 13,8 9,7 15,6 4 2 11 6 - 1018,7 5 0,0

tt = temperatuur
td = dauwpunt
tt 5cm = temperatuur 5cm
ff = windsnelheid
fx = windstoten
dd = windrichting
ppp = luchtdruk
vv = zicht
rr = neerslag

Weerstations in de omgeving